Wind_Speed
16 17 17 17 17 17 17 18 18 18 17 16 16 16 16 16 16 17 17 17 17 18 19 19 20 21 22 22 22 21 21 20 20 20 21 21 22 23 23 23 23 24 24 24 23 22 22 21 20 20 20 21 21 21 22 22 22 21 21 21 21 21 22 22 23 24 25 25 24
17 17 18 18 18 18 18 18 18 18 17 16 16 16 16 16 17 17 18 18 18 18 19 20 20 21 22 22 22 22 21 21 21 21 21 22 22 23 23 23 23 24 24 24 24 23 22 21 20 20 20 20 21 21 22 23 23 22 22 22 22 21 21 22 23 24 25 25 24
17 18 19 19 18 18 18 17 18 18 17 17 17 17 17 18 18 18 18 19 19 20 19 19 20 21 21 22 22 22 21 22 22 22 22 22 23 23 23 23 23 24 24 24 24 24 23 21 20 20 20 20 21 21 22 22 22 22 22 23 22 21 21 21 22 22 22 23 23
17 17 18 18 17 17 17 17 18 18 18 19 19 19 19 19 19 20 20 20 20 20 20 20 20 21 21 21 22 22 23 23 23 23 24 24 24 24 23 23 23 23 24 24 24 24 24 22 21 20 20 21 21 22 22 22 21 21 21 22 21 21 21 21 21 21 21 21 22
16 16 17 17 17 16 16 17 17 17 18 19 19 19 19 19 20 20 20 20 20 20 21 21 21 21 22 22 23 24 24 24 24 24 24 25 25 25 24 24 23 23 23 24 24 24 24 23 21 21 21 21 22 22 23 22 21 21 21 21 21 21 21 21 21 21 21 21 21
15 15 15 15 15 15 15 16 16 16 17 17 17 18 18 18 19 19 19 20 21 21 22 22 22 22 23 23 23 24 24 24 24 24 24 25 25 26 25 25 24 24 24 24 24 24 24 23 22 22 22 22 23 24 24 24 22 22 21 21 21 21 22 22 21 21 21 21 22
14 14 14 14 14 14 14 14 15 15 16 16 16 17 17 18 18 19 19 20 21 22 22 23 23 23 24 24 24 25 25 25 25 24 24 24 24 25 25 25 25 25 25 25 24 24 24 23 22 22 22 22 23 24 25 25 24 23 22 22 22 22 22 23 23 22 22 23 23
13 13 13 13 13 13 14 14 15 15 16 16 16 17 17 18 19 20 21 21 22 22 23 23 24 24 25 25 26 26 26 26 26 25 24 24 24 24 25 25 25 25 25 25 25 24 23 22 22 22 22 22 23 24 25 26 26 25 25 24 23 23 23 24 25 24 24 25 26
12 12 13 13 13 14 14 15 15 16 16 17 17 18 18 19 20 21 21 21 22 22 23 23 24 25 25 26 27 27 27 26 26 26 25 25 24 24 25 25 25 25 25 25 25 24 24 23 22 23 23 24 24 25 26 26 26 27 27 26 25 24 24 24 25 25 26 26 28
13 13 13 14 14 15 15 16 17 17 18 19 19 20 20 21 21 21 21 22 23 24 24 24 25 25 26 26 27 27 26 26 26 26 26 26 25 25 25 24 25 25 25 24 24 23 23 23 23 25 26 26 27 27 27 27 27 28 28 27 26 26 26 25 25 26 26 27 28
13 14 14 15 16 17 17 18 19 20 20 21 21 22 22 22 22 22 22 23 24 24 24 25 25 25 26 26 26 26 26 26 26 26 26 26 26 26 25 25 25 25 25 24 23 22 22 22 23 25 27 28 28 28 28 28 28 29 29 29 28 28 28 27 27 27 27 28 29
14 15 16 17 18 19 20 21 22 22 23 23 23 23 23 23 22 22 22 23 23 23 24 24 24 25 25 25 26 26 25 25 25 25 26 26 27 27 26 26 26 25 25 24 23 22 22 23 24 26 28 29 29 28 29 30 30 30 30 30 30 29 29 30 30 29 28 28 29
16 17 18 19 21 22 22 23 23 24 24 24 24 23 23 23 22 22 22 22 22 22 23 24 24 24 24 24 24 24 24 24 25 25 25 26 26 27 27 26 26 25 25 24 23 22 22 24 25 27 29 30 30 29 30 30 30 30 30 31 30 30 31 33 33 33 31 30 30
18 19 20 21 22 23 23 23 23 24 24 24 23 23 23 23 23 22 21 21 22 22 23 23 23 23 23 23 23 23 24 24 24 24 25 26 26 26 26 26 26 25 25 24 23 23 23 25 26 28 30 31 32 31 31 31 30 30 31 31 31 32 33 35 35 35 34 33 33
19 20 21 22 23 23 23 23 23 23 23 23 23 23 23 22 22 22 22 22 22 23 23 22 22 23 23 23 23 23 23 23 23 24 24 25 25 25 25 26 26 25 25 25 24 24 24 25 27 28 30 31 32 33 32 31 31 31 32 32 33 34 34 35 35 35 35 34 34
20 21 22 22 22 23 22 22 22 22 22 22 23 23 23 22 22 22 22 22 22 22 22 22 22 23 23 23 23 23 23 22 22 23 23 24 24 24 25 25 25 25 25 25 25 25 25 25 26 27 29 30 31 32 32 32 32 32 33 34 35 36 37 37 37 36 35 35 35
20 21 21 22 22 22 23 23 22 22 22 23 23 23 23 22 22 22 22 23 22 22 22 23 23 23 23 24 23 23 22 22 22 22 23 23 24 24 24 25 25 25 26 26 27 27 27 26 26 26 27 29 30 31 32 32 33 33 34 35 36 37 38 38 37 36 35 34 35
20 21 21 21 22 22 23 24 24 24 23 24 24 24 23 23 23 23 23 23 23 23 23 24 24 23 23 24 23 22 22 22 23 23 23 24 25 25 25 26 26 26 26 27 28 28 28 28 27 26 26 27 28 30 31 32 33 34 34 35 36 37 39 39 38 37 35 34 35
20 20 21 21 22 23 24 24 24 24 24 24 24 24 24 24 24 24 24 24 24 23 23 24 24 24 23 23 23 23 22 22 23 24 24 25 25 26 26 27 27 27 27 28 29 29 29 28 27 26 26 27 28 29 31 32 33 33 34 34 35 37 38 39 39 38 37 37 37
20 20 20 21 23 24 24 24 24 24 24 24 25 25 25 25 25 25 25 25 24 24 24 24 24 24 24 24 24 24 23 23 23 24 24 24 25 26 26 27 27 27 27 28 29 30 30 29 28 28 28 29 30 31 32 32 33 33 34 34 35 36 37 38 38 39 39 39 39
20 20 21 22 23 24 24 24 24 24 24 25 25 25 25 25 25 25 25 25 25 24 24 24 24 24 24 24 24 25 25 24 24 24 25 25 26 26 26 26 26 26 26 28 29 30 30 30 30 30 31 31 32 33 33 33 33 33 33 33 34 35 36 37 37 38 39 39 39
21 21 22 23 23 23 23 24 24 24 24 24 25 25 25 25 25 25 25 25 24 24 23 23 23 24 24 24 25 25 26 25 25 25 25 25 26 26 25 25 25 26 27 29 30 31 31 31 31 31 32 32 32 33 33 33 33 33 32 32 33 34 35 36 37 37 38 39 39
22 22 23 23 23 23 23 23 24 24 24 24 24 24 24 24 24 24 24 24 24 23 23 23 23 24 24 25 25 26 26 26 26 26 25 25 25 25 25 25 25 26 28 29 30 30 30 30 30 30 30 30 31 31 32 32 32 32 32 33 33 35 36 37 37 38 38 39 39
23 23 23 23 23 23 23 23 23 23 23 23 24 24 24 24 24 24 24 23 23 23 24 24 24 24 25 26 26 26 26 26 26 26 25 25 25 25 25 24 24 25 26 27 27 27 27 27 27 28 28 28 29 29 30 30 30 31 32 33 34 35 36 38 38 39 39 39 38
23 23 23 23 23 23 23 23 23 23 23 23 24 24 23 23 23 23 23 23 23 24 24 24 25 25 25 25 25 25 25 25 25 25 26 26 25 25 25 25 24 25 26 27 27 26 25 25 25 26 26 27 29 29 28 29 29 30 31 33 34 35 36 37 37 37 37 38 38
23 23 24 24 24 24 23 23 23 23 23 23 24 23 23 23 23 23 23 23 24 24 24 25 25 25 24 24 24 24 24 24 24 25 26 26 26 26 26 25 25 25 26 28 27 27 26 26 26 26 27 28 29 30 29 29 30 30 30 32 33 34 35 34 34 34 35 35 36
23 23 24 24 24 24 24 24 23 23 23 23 23 23 23 23 23 23 23 23 24 24 24 24 24 24 23 23 23 24 24 25 25 25 26 26 27 27 27 26 26 27 28 29 28 27 27 27 27 27 28 29 30 30 30 29 30 30 31 31 32 33 33 32 32 32 32 32 32
23 24 24 24 24 24 25 24 23 23 23 23 23 23 23 23 23 23 23 23 24 24 24 23 23 22 22 22 23 24 25 26 26 26 26 26 26 27 27 26 27 27 28 28 27 27 27 28 28 28 28 28 28 28 28 29 30 30 30 31 31 31 32 32 31 30 29 28 29
24 24 24 24 25 25 25 24 23 23 23 23 23 23 23 23 23 23 23 23 24 23 23 23 23 23 23 24 25 26 26 26 26 26 26 26 27 27 27 27 28 28 27 28 28 28 29 29 29 29 29 28 28 27 27 28 29 30 30 30 30 30 30 30 32 32 30 28 27
24 24 25 25 25 25 25 24 24 23 23 23 23 23 23 23 23 23 23 23 24 24 24 24 24 24 24 25 26 26 26 26 26 25 25 26 27 28 28 28 28 29 29 29 29 29 30 30 30 29 29 29 28 27 27 27 28 29 30 30 31 30 30 30 31 32 32 31 28
25 24 25 25 25 25 25 24 24 24 23 23 23 23 24 24 24 24 24 24 24 25 25 25 25 25 26 26 26 26 26 26 26 26 26 26 27 28 28 29 29 30 30 30 30 29 30 30 29 29 29 29 28 28 28 28 29 29 30 30 31 31 31 30 30 30 31 31 30
24 24 24 24 24 24 24 24 24 24 23 23 24 24 24 24 24 24 24 25 25 25 25 25 25 26 27 27 27 26 27 27 27 27 27 27 27 28 29 29 30 30 30 29 29 29 29 29 30 30 30 29 29 29 29 29 30 30 30 31 32 32 32 32 32 32 32 32 31
23 23 23 23 24 24 24 24 24 24 24 24 24 25 25 25 25 25 25 25 25 25 25 25 26 26 27 27 27 27 27 27 27 27 27 27 28 29 29 30 30 29 29 29 29 29 30 30 30 31 31 31 30 30 30 30 30 30 30 31 31 31 31 31 32 32 32 31 30
23 23 22 23 23 24 25 25 24 24 25 25 25 25 25 25 26 26 26 25 25 25 25 26 26 26 26 26 26 27 27 27 27 27 27 28 28 29 30 30 29 29 29 29 30 30 31 31 31 31 31 31 31 30 30 29 29 29 30 30 31 30 30 31 31 31 30 30 28
22 22 22 23 24 24 25 25 25 25 25 25 26 26 26 25 26 26 26 26 26 26 26 26 26 27 27 27 26 26 27 28 28 28 28 28 29 30 30 31 31 30 30 30 31 31 31 31 31 31 31 31 30 29 29 28 28 29 29 29 30 30 29 29 29 30 30 31 29
22 22 23 24 24 25 25 25 25 25 26 26 26 26 26 26 26 26 26 26 26 26 26 27 27 27 27 27 27 26 26 27 28 29 29 29 29 30 31 32 32 31 31 31 31 31 31 31 31 31 31 30 29 28 27 27 27 27 27 28 28 28 28 28 28 29 30 31 31
22 23 23 24 25 25 25 25 25 26 26 26 26 26 26 27 27 26 26 26 26 27 27 27 27 27 27 27 27 27 27 27 28 29 29 29 29 30 31 32 32 32 31 31 30 30 31 31 31 31 30 29 28 28 27 26 25 25 25 26 26 27 27 27 27 28 29 29 30
23 23 23 24 25 25 25 25 25 26 26 27 27 27 27 27 27 27 26 25 26 26 27 27 27 27 27 27 28 28 28 28 28 29 30 30 29 29 30 32 32 32 31 30 30 30 30 30 30 30 29 28 28 27 26 25 24 24 24 25 25 25 25 25 25 26 26 27 28
23 23 23 24 25 25 25 25 26 26 26 27 27 27 27 27 27 26 26 26 25 26 27 27 27 27 27 28 28 29 29 29 29 29 29 30 30 30 30 31 32 32 31 30 30 30 30 30 30 29 28 28 27 26 25 25 25 25 25 25 25 24 24 24 24 24 25 26 27
23 23 23 24 24 25 25 26 26 26 26 27 27 27 27 27 27 27 26 26 25 26 26 27 28 28 28 28 28 29 30 30 29 29 29 30 30 30 30 31 31 31 31 30 29 29 29 29 29 29 28 27 26 25 24 24 24 24 24 24 23 23 23 23 23 23 24 26 26
23 23 24 24 24 25 25 26 27 27 27 26 27 27 27 27 27 26 26 26 26 26 27 27 28 29 29 29 29 29 30 31 31 30 30 30 30 30 30 29 30 30 29 29 28 28 28 28 28 28 28 27 26 25 24 23 23 23 24 23 23 22 22 23 23 23 23 24 24
Wind_Direction
320 319 317 316 314 313 311 310 309 308 306 302 299 297 295 294 293 293 293 292 291 290 290 290 290 291 292 293 292 291 289 287 285 283 281 280 279 278 276 274 271 269 266 265 262 258 254 249 245 243 242 242 243 243 244 244 243 242 241 240 241 241 241 240 241 240 239 239 238
322 320 319 319 319 319 318 317 316 316 314 309 304 301 299 298 296 296 296 295 294 293 292 292 292 293 293 293 293 292 290 288 286 284 283 281 280 279 278 275 272 269 267 265 262 258 254 250 245 243 242 242 242 243 244 244 243 243 242 241 241 242 242 242 242 242 242 241 240
319 318 318 318 319 319 319 317 316 316 314 312 309 308 306 305 304 303 303 302 302 301 298 296 296 296 296 295 295 293 291 289 288 287 285 284 283 281 278 275 273 270 268 265 262 259 256 252 247 244 242 242 242 243 244 244 243 242 242 241 241 241 242 242 243 243 242 242 240
318 317 317 317 317 317 316 315 315 314 314 314 314 314 314 314 314 313 313 313 312 310 306 303 302 301 300 299 298 296 294 291 289 287 286 285 284 283 280 277 274 271 268 266 263 260 257 253 249 246 244 243 243 243 244 244 242 241 241 241 240 240 241 242 242 242 241 241 240
317 316 316 316 317 317 317 317 317 317 318 320 321 322 322 322 321 321 320 319 317 315 313 311 309 307 306 305 303 301 299 296 293 290 288 287 286 285 283 279 275 272 269 267 264 261 258 254 250 247 246 245 244 244 244 244 242 241 241 241 240 239 239 240 240 240 240 241 240
319 319 319 321 321 322 323 323 324 324 325 327 327 326 326 325 325 323 321 319 319 319 318 318 316 315 313 312 310 308 306 303 300 296 292 290 288 287 285 281 277 274 271 268 265 262 258 253 249 248 247 246 246 246 246 245 243 241 241 240 239 239 239 239 239 239 239 239 239
323 325 326 327 329 329 330 330 330 331 331 332 331 329 328 327 326 324 323 322 323 323 323 322 321 320 318 317 315 313 311 308 305 301 297 293 291 288 286 283 280 276 272 270 267 263 258 253 249 248 247 247 247 247 247 245 242 240 239 239 239 238 238 238 238 238 238 238 238
330 332 334 334 336 335 335 334 334 333 333 332 331 330 330 328 327 326 326 326 324 324 323 322 322 321 319 318 317 315 314 312 309 306 302 297 294 290 288 285 282 278 275 271 267 263 258 252 249 247 247 247 248 248 248 245 243 240 239 238 239 238 237 238 238 238 238 238 238
335 337 338 339 338 337 336 335 333 332 331 330 329 329 328 327 327 326 325 323 323 322 322 321 320 319 319 318 317 316 314 312 310 308 305 301 297 293 290 287 283 280 277 273 269 264 259 253 249 248 248 247 248 249 249 246 244 241 240 240 240 239 238 237 237 237 238 238 238
337 338 339 338 337 335 333 331 330 329 328 326 326 326 326 325 325 323 322 320 320 320 319 318 318 317 316 316 315 314 313 311 310 308 306 304 300 296 293 289 285 282 278 274 270 265 260 254 251 250 250 249 250 250 250 248 245 243 242 241 241 240 239 238 236 236 236 237 237
335 336 336 335 333 331 330 328 327 326 325 324 324 323 323 322 321 320 318 318 317 317 316 315 315 314 313 313 312 311 310 309 308 307 305 304 302 299 296 292 288 285 280 276 271 266 260 256 253 252 252 252 252 252 251 249 246 244 243 243 243 242 241 240 238 236 235 236 236
331 331 331 331 329 328 327 326 324 323 323 322 322 321 320 319 318 316 315 314 313 312 312 312 312 311 310 310 309 309 308 307 306 304 303 302 301 300 298 295 292 288 284 279 273 268 263 259 256 255 255 254 253 253 252 251 248 246 245 245 245 244 244 243 240 238 237 236 236
325 326 326 326 326 326 325 324 322 321 320 319 319 318 317 315 314 313 312 310 308 308 308 309 309 308 308 307 307 306 306 305 304 302 301 300 300 299 298 296 294 290 287 282 276 270 265 262 260 259 258 257 256 255 254 253 251 249 248 247 246 245 245 246 244 242 240 238 238
322 322 323 323 323 323 322 321 320 318 317 316 315 314 313 312 311 310 309 307 305 305 306 307 307 307 306 305 305 305 304 303 302 301 300 299 299 298 297 296 294 292 289 285 280 274 269 266 263 262 261 261 260 259 258 257 255 253 252 250 249 248 248 248 248 246 244 242 241
321 321 321 321 321 320 319 318 316 315 313 312 311 310 310 309 308 307 306 305 304 305 305 305 305 305 305 305 305 304 303 302 301 300 299 298 297 297 296 295 294 292 289 287 283 278 274 270 268 266 265 264 263 263 262 260 258 257 255 254 253 253 252 252 251 250 247 245 244
322 320 320 319 318 317 315 314 312 311 309 308 308 308 307 306 306 305 305 304 304 305 304 304 304 304 305 305 305 304 303 301 300 298 297 296 295 295 294 293 292 290 289 287 285 282 279 275 272 270 268 267 266 266 265 263 261 259 258 257 257 256 256 256 255 253 251 249 247
321 320 318 317 316 314 313 311 310 308 307 306 306 306 306 305 305 305 304 304 304 304 304 304 304 304 305 305 305 304 303 301 299 297 296 295 294 294 293 292 291 289 288 287 285 284 282 279 276 274 271 270 269 269 268 266 264 263 261 260 260 259 259 258 257 256 254 252 250
319 318 317 315 314 312 311 310 309 308 307 306 306 306 306 305 305 305 305 305 305 305 304 305 305 304 304 304 304 303 301 300 298 297 296 295 294 293 292 291 291 290 288 287 286 285 283 282 280 277 274 272 271 271 271 270 268 267 265 264 263 262 261 261 259 258 256 254 252
318 316 315 313 312 311 310 310 309 308 307 307 306 306 306 306 307 307 307 307 306 305 305 305 305 304 303 303 302 301 300 298 297 296 295 294 294 293 292 291 291 290 288 288 287 286 285 283 281 279 276 274 273 272 272 272 271 270 269 268 266 265 264 263 262 260 258 256 255
316 314 313 311 311 310 310 309 309 308 307 307 307 307 307 308 308 307 307 306 306 306 305 305 304 304 303 302 302 300 299 297 296 295 294 293 292 291 291 291 290 289 287 287 287 286 285 284 283 281 279 277 276 275 274 274 273 272 271 270 269 268 266 265 264 263 261 259 258
314 312 311 311 310 310 309 309 308 308 307 307 307 307 307 308 308 307 306 306 306 306 305 304 303 302 302 301 300 300 298 297 295 293 292 291 290 290 290 289 288 287 286 285 285 285 285 284 283 282 282 281 280 278 277 276 275 274 273 271 270 269 268 268 266 265 264 262 261
312 312 311 310 310 309 309 308 308 307 307 307 307 307 307 307 306 306 306 306 305 305 304 303 302 301 300 299 299 298 297 296 294 293 291 291 290 289 288 287 286 285 284 284 284 285 285 285 285 285 284 283 282 281 280 279 277 275 274 273 271 270 270 269 268 267 266 265 264
312 312 311 311 310 310 309 308 308 307 307 306 306 306 306 305 305 305 305 305 304 303 302 301 301 300 299 299 298 297 296 295 294 292 291 290 289 288 288 286 285 284 284 284 284 285 285 286 287 287 286 285 284 284 283 281 279 277 275 274 273 272 271 271 270 269 268 267 266
313 313 312 311 311 310 309 308 308 307 306 305 305 305 305 304 304 304 304 303 302 302 302 301 300 300 299 299 297 296 295 293 292 292 291 290 289 288 288 287 285 284 283 283 283 284 285 286 287 287 287 286 285 285 283 282 279 277 275 274 273 272 272 272 271 270 269 268 267
313 313 312 311 310 310 309 308 307 306 305 305 304 304 304 303 303 303 302 302 302 301 301 301 300 300 299 299 297 296 294 292 292 292 292 291 290 290 289 288 287 285 283 282 282 282 283 284 284 285 285 284 285 284 283 282 279 277 275 274 273 271 271 270 269 269 268 268 268
313 312 312 311 311 310 308 307 306 305 304 304 304 303 302 302 302 301 301 301 301 301 301 301 301 300 299 298 297 295 294 293 293 292 292 292 292 291 290 289 287 285 284 284 284 284 284 284 283 283 283 283 283 283 283 281 279 276 275 274 273 271 268 267 267 267 266 266 266
311 311 311 311 310 309 308 307 306 305 304 303 303 302 301 301 301 300 300 300 300 301 301 301 300 300 299 298 296 295 295 294 294 293 292 292 292 291 291 289 288 286 286 286 286 286 286 286 286 285 285 284 284 283 282 281 280 278 275 274 274 273 270 268 267 267 266 264 264
311 311 311 311 309 308 307 307 305 304 303 302 301 301 300 300 300 299 299 299 300 301 301 301 300 300 299 298 296 296 295 295 294 293 292 291 290 290 290 289 289 288 287 287 288 288 288 288 288 287 287 286 286 284 282 282 281 280 278 276 275 273 273 273 272 271 268 265 263
313 312 311 310 308 308 307 306 304 303 303 302 301 301 300 300 299 299 299 299 300 300 301 301 301 300 298 297 296 295 295 294 293 292 292 291 291 290 289 289 289 288 288 288 289 289 289 289 289 288 288 287 286 285 283 281 281 280 279 278 276 274 272 272 273 273 273 270 266
314 312 310 309 308 307 306 305 304 304 303 302 301 301 300 299 299 299 299 299 299 299 299 299 299 297 296 295 295 295 294 293 292 292 291 291 291 290 290 290 289 289 289 289 289 289 290 290 289 289 289 288 287 286 284 282 280 279 279 277 277 275 273 271 270 271 272 271 270
314 312 310 309 307 306 306 305 305 304 303 302 301 300 299 299 298 298 298 298 298 298 298 297 296 294 294 294 294 293 293 293 293 292 291 291 291 290 290 290 290 289 289 289 289 290 290 290 290 290 289 289 289 287 285 284 282 280 278 277 276 276 275 274 272 271 270 271 271
313 311 310 308 306 305 305 305 305 304 303 302 301 300 299 298 297 297 297 297 297 297 297 297 295 295 295 295 294 294 293 293 293 292 292 291 291 291 291 291 290 290 290 290 290 290 290 291 290 290 290 290 290 288 286 284 282 281 279 277 276 276 275 275 274 274 272 272 271
312 310 309 307 305 305 305 305 304 304 303 302 301 299 299 298 297 297 297 297 296 296 296 296 295 295 295 295 295 294 294 293 293 292 292 292 292 292 291 291 291 291 290 290 291 291 291 291 291 291 291 291 290 289 287 285 283 282 280 278 277 276 275 274 273 272 271 270 269
311 310 308 306 305 304 304 304 304 303 302 301 300 299 298 297 297 297 296 296 296 295 295 294 294 294 293 293 293 293 293 293 293 293 293 293 293 293 292 291 291 291 291 291 292 292 292 292 291 291 291 291 291 289 288 286 284 282 280 279 278 277 276 274 273 271 269 268 268
310 308 307 305 304 304 304 303 303 302 302 300 299 298 298 297 296 296 296 296 296 295 294 293 293 293 293 292 292 292 293 293 293 294 294 294 294 293 292 291 291 291 291 292 293 293 293 292 292 292 292 292 291 290 288 287 285 283 281 281 280 280 279 278 276 274 272 271 270
309 307 306 305 304 303 303 302 302 301 300 299 298 298 297 297 296 296 296 296 295 294 294 293 293 293 293 293 293 293 293 293 294 294 294 294 294 294 293 292 292 292 293 294 294 294 294 293 293 293 293 293 292 291 289 288 286 284 283 283 282 282 282 281 280 278 276 274 272
307 306 305 304 303 302 302 302 301 300 299 298 298 298 297 297 296 296 296 296 295 294 294 294 294 294 294 294 294 294 294 294 294 294 295 295 294 294 294 293 294 294 294 295 295 295 295 294 293 294 294 294 293 292 290 288 286 285 284 283 282 282 282 282 281 280 277 275 273
306 305 304 302 301 301 301 301 300 299 298 298 298 298 297 297 297 296 296 296 295 294 294 294 294 294 294 294 294 294 294 294 294 294 295 295 294 294 294 294 294 295 295 296 296 296 295 294 294 294 294 294 293 292 290 288 286 284 283 282 282 281 280 280 280 279 277 275 273
304 303 302 301 300 300 300 299 299 298 298 298 298 298 298 297 296 296 296 295 294 293 294 294 294 294 294 295 295 295 295 295 294 294 294 295 295 294 294 294 294 295 295 296 296 296 295 295 295 295 295 294 293 292 290 288 286 284 283 284 284 284 282 281 279 278 277 275 273
302 302 301 300 299 299 299 299 298 298 298 298 298 298 297 297 296 296 296 295 294 294 294 294 294 295 295 296 296 295 295 295 295 295 295 295 295 295 294 294 294 294 295 296 296 295 295 295 296 296 296 295 294 292 290 287 286 284 284 283 284 283 283 282 280 279 278 278 277
301 301 300 299 299 298 298 298 298 298 298 298 297 297 297 297 296 296 296 296 296 295 295 295 295 295 296 296 296 296 296 296 296 296 296 296 296 295 294 294 294 294 295 295 295 295 295 295 296 297 297 297 296 295 292 289 285 285 285 286 284 283 282 282 280 278 278 279 279
Height
833 833 832 831 831 830 829 828 828 827 826 826 825 824 823 823 821 820 819 818 817 816 815 813 813 811 810 810 809 808 808 807 806 805 804 804 803 802 802 801 800 800 799 798 798 798 797 797 797 796 795 794 793 793 793 792 792 792 792 792 791 791 790 790 790 789 789 789 789
833 832 831 830 829 828 828 827 826 825 825 824 823 823 822 821 820 819 818 817 816 814 813 812 811 810 809 808 807 807 806 805 804 803 803 802 801 800 800 799 798 798 797 797 796 796 796 795 795 794 793 792 791 791 790 789 789 789 789 789 789 788 788 788 787 787 787 787 787
832 831 830 829 828 828 827 826 825 824 824 823 822 821 820 819 818 817 816 815 814 813 812 810 809 808 807 806 806 805 804 803 802 801 800 799 799 798 798 797 796 796 795 795 794 794 793 793 793 792 791 790 789 788 788 787 787 787 787 786 786 786 786 785 784 784 784 784 784
831 830 829 828 828 827 826 825 824 823 822 821 820 819 818 817 816 815 814 813 812 811 810 809 808 807 806 805 804 803 802 801 800 799 798 797 797 796 795 795 794 793 793 793 792 792 791 791 791 790 789 788 787 786 785 785 785 784 784 783 783 783 783 782 782 782 782 781 781
830 829 828 827 827 826 825 824 823 822 821 820 819 818 817 816 815 813 813 812 810 809 808 808 806 805 804 803 802 801 800 799 798 797 796 795 794 793 793 793 792 791 791 790 790 789 789 789 789 788 787 786 785 784 783 783 783 782 782 781 781 780 780 779 779 779 779 778 778
828 828 827 826 825 824 823 823 822 821 819 818 818 817 816 814 813 813 812 810 809 808 807 806 805 803 802 801 800 799 798 797 796 795 794 793 792 791 791 790 789 789 788 788 787 787 786 786 786 785 784 783 782 781 780 780 780 779 779 778 778 777 777 777 776 776 776 776 775
828 827 826 825 824 823 822 821 820 819 818 818 817 816 815 814 813 812 810 809 808 807 805 804 803 802 801 800 798 797 796 795 794 793 792 791 790 789 788 788 787 786 786 785 784 784 784 784 783 782 782 781 780 778 778 778 777 777 776 775 774 774 774 773 773 773 773 773 772
826 826 825 824 823 822 821 820 819 818 818 816 815 814 813 813 812 810 809 808 807 805 804 803 802 801 799 798 797 796 794 793 792 791 790 789 788 787 786 785 785 784 783 783 782 782 781 781 780 779 778 778 777 776 775 774 774 773 773 772 771 771 770 770 769 769 769 769 769
825 824 824 823 822 821 820 819 818 818 817 815 814 813 813 811 810 809 808 807 805 804 803 802 800 799 798 797 795 794 793 792 790 789 788 787 786 785 784 783 783 782 781 780 780 779 778 778 777 776 775 775 774 773 772 772 771 770 769 769 768 768 767 766 766 766 765 765 765
824 823 823 822 821 820 819 818 818 817 816 814 813 812 811 810 809 808 806 805 804 803 801 800 799 798 796 795 794 793 791 790 789 788 786 785 784 783 782 781 780 779 778 778 778 777 776 775 774 773 772 771 770 769 769 769 768 768 767 766 765 764 763 763 763 762 762 761 761
823 823 822 821 820 819 818 817 816 815 814 813 812 811 810 808 807 806 805 803 802 801 799 798 797 796 794 793 792 790 789 788 787 786 784 783 782 781 780 779 778 777 776 776 775 775 774 773 772 770 769 768 768 767 766 766 765 764 763 763 762 761 761 760 760 759 758 757 757
823 822 821 820 819 818 817 816 815 814 813 812 811 809 808 807 806 804 803 802 800 799 798 796 795 794 792 791 790 788 787 786 785 783 782 781 780 779 778 777 776 775 774 773 773 773 772 771 769 768 767 765 765 764 763 763 762 762 761 760 759 758 758 757 756 756 755 754 753
822 821 820 819 818 817 816 815 814 813 812 810 809 808 807 805 804 803 802 800 799 797 796 794 793 792 790 789 788 786 785 784 783 782 780 779 778 777 775 774 773 773 772 771 771 770 769 768 767 766 764 763 763 762 761 760 760 759 758 757 756 756 754 753 753 752 752 752 751
821 820 819 818 817 816 815 813 812 811 810 809 808 806 805 804 803 801 800 798 797 796 794 793 791 790 789 787 786 785 783 782 781 779 778 777 775 774 773 772 771 770 769 768 768 768 767 766 764 763 762 761 760 759 759 758 758 757 756 755 753 753 751 750 749 749 749 749 748
820 819 818 817 816 814 813 812 811 810 808 807 806 805 803 802 801 799 798 797 795 794 793 791 789 788 787 786 784 783 781 780 779 777 776 774 773 772 771 770 769 768 767 766 765 764 764 763 761 760 760 758 758 757 756 756 755 754 753 752 751 750 748 748 747 747 747 746 745
818 818 817 815 814 813 812 811 809 808 807 806 804 803 802 800 799 798 796 795 793 792 791 789 788 786 785 784 783 781 780 778 777 776 774 773 771 770 769 768 767 765 764 763 763 762 761 760 759 758 757 756 755 754 753 753 752 751 750 749 748 747 746 745 745 744 744 743 743
817 816 815 814 813 812 810 809 808 807 805 804 803 801 800 799 798 796 795 793 792 790 789 788 786 785 783 782 780 779 778 776 775 774 772 771 769 768 767 766 764 763 762 761 760 759 758 757 757 756 754 753 752 751 750 749 749 748 747 746 745 744 743 742 742 742 741 740 740
816 815 813 813 811 810 809 808 806 805 803 802 801 800 798 797 796 794 793 792 790 789 787 785 784 783 782 780 778 777 776 774 773 772 770 769 767 766 765 763 762 761 760 759 758 757 756 755 754 753 752 751 750 748 747 746 745 744 743 743 741 740 739 739 738 738 738 737 736
814 813 812 811 810 808 807 806 804 803 802 801 799 798 797 795 794 793 791 789 788 787 785 784 782 781 780 778 777 775 774 773 771 769 768 767 765 764 762 761 760 758 757 756 755 754 753 752 751 751 750 748 747 746 745 744 743 742 740 739 738 737 736 735 734 734 734 733 733
813 812 811 810 808 807 805 804 803 802 800 799 798 796 795 793 792 791 789 788 786 785 784 782 780 779 778 776 775 773 772 771 769 767 766 764 763 762 760 758 757 756 754 753 752 751 750 749 748 748 747 746 744 743 742 741 740 739 738 736 735 733 733 732 731 730 730 729 729
812 811 809 808 807 805 804 803 801 800 799 797 796 794 793 792 790 789 788 786 784 783 782 780 779 777 776 774 773 771 770 768 767 765 763 762 761 759 758 756 755 753 752 750 749 748 747 746 746 745 743 743 741 740 739 738 737 736 735 733 732 730 729 728 728 727 726 726 725
810 809 808 806 805 804 803 801 800 798 797 796 794 793 791 790 788 787 786 784 783 782 780 779 777 776 774 773 771 769 768 766 765 763 761 760 758 757 755 754 753 751 749 748 746 745 744 743 743 742 741 739 738 737 736 735 734 733 732 730 729 728 726 725 724 723 723 722 722
809 808 806 805 803 802 801 799 798 797 795 794 793 791 790 788 787 785 784 783 781 780 778 777 776 774 773 771 769 768 766 764 762 761 759 758 756 754 753 752 750 748 747 745 744 743 742 741 739 738 738 737 735 734 733 732 731 730 728 727 725 724 723 722 721 720 719 718 718
807 806 804 803 802 801 799 798 797 795 794 793 791 790 788 787 785 784 783 781 780 778 777 775 774 772 770 769 767 766 764 762 760 758 757 756 754 753 751 750 748 746 744 743 742 741 740 739 738 736 735 734 733 732 730 729 728 727 725 723 722 720 719 718 717 716 716 715 714
805 804 803 802 800 799 798 796 795 794 792 791 789 788 787 785 784 782 781 779 778 777 775 773 772 770 768 767 765 763 762 760 758 757 755 753 752 751 749 748 746 744 742 741 740 739 738 738 737 735 734 732 731 730 729 727 726 724 722 720 718 717 715 714 713 713 712 711 711
804 803 801 800 798 797 796 795 793 792 790 789 788 786 785 783 782 781 779 778 776 774 773 772 770 768 767 765 763 761 760 758 757 755 753 751 749 748 747 745 743 742 740 738 738 737 736 736 735 734 733 731 729 728 726 724 723 721 720 718 717 715 713 711 710 709 708 708 708
802 801 799 798 797 795 794 793 791 790 788 787 786 784 783 782 780 779 777 776 774 773 771 770 768 766 765 763 761 759 758 756 755 753 751 749 748 746 744 743 741 739 737 736 735 735 734 733 732 731 730 729 728 726 724 722 720 718 717 716 714 713 711 709 707 706 705 705 704
801 799 798 796 795 793 792 791 789 788 787 785 784 783 781 780 778 777 775 774 772 771 769 768 766 764 763 761 759 757 756 754 752 751 749 747 745 744 742 740 738 737 735 734 733 733 732 731 730 729 728 727 725 723 722 720 718 716 714 713 711 709 708 707 706 704 703 702 702
799 797 796 794 793 792 790 789 788 786 785 783 782 781 779 778 776 775 773 772 770 769 767 765 764 762 761 759 757 755 753 752 750 748 746 745 743 741 740 738 736 734 733 732 731 730 729 728 727 726 725 724 723 721 719 718 715 713 711 710 708 706 705 704 703 702 701 700 699
797 796 794 793 791 790 788 787 786 785 783 782 780 779 777 776 774 773 771 770 768 767 765 763 762 760 758 756 754 753 751 749 748 746 744 742 740 738 737 735 734 732 730 730 729 728 727 725 724 723 723 722 721 719 717 715 713 711 709 707 705 704 702 701 700 699 698 698 697
795 794 793 791 789 788 787 785 784 783 781 780 778 777 775 774 772 771 769 768 766 764 763 761 759 758 755 754 752 750 748 747 745 743 742 740 738 736 734 733 731 729 728 727 726 725 724 723 722 721 720 719 718 717 714 712 710 708 706 704 702 701 700 698 697 696 696 695 695
794 792 791 789 788 786 785 784 782 781 780 778 777 775 773 772 770 769 767 766 764 762 760 758 757 755 753 751 750 748 746 744 743 741 739 738 736 734 732 730 728 727 725 724 723 723 722 720 719 718 717 716 715 713 712 709 708 705 703 701 699 698 697 696 695 694 693 693 692
792 791 789 788 786 785 783 782 781 779 778 776 775 773 772 770 768 766 765 763 762 760 758 756 754 753 751 749 747 745 743 742 741 739 737 736 734 732 730 728 726 724 723 722 721 720 719 718 717 715 714 713 712 710 708 706 704 703 700 698 697 695 694 693 693 691 690 689 689
791 789 788 786 785 783 782 780 779 777 776 774 773 771 769 768 766 764 763 761 759 758 756 754 752 750 748 747 745 743 741 739 738 737 735 733 732 729 728 725 723 722 721 720 718 718 717 715 714 713 712 711 709 707 705 703 702 700 698 696 694 693 692 691 689 688 688 687 687
789 788 786 784 783 781 780 778 777 775 774 772 770 768 767 766 764 762 760 759 757 755 753 752 750 748 746 744 743 741 739 737 735 734 733 731 729 727 725 723 721 720 718 718 716 715 714 713 711 710 709 708 706 704 702 701 699 697 695 693 692 690 689 688 687 686 685 684 684
788 787 785 783 781 779 778 776 775 773 772 770 768 767 765 763 762 760 759 757 755 753 751 749 747 745 743 742 740 739 737 735 733 732 730 729 727 725 722 720 718 717 716 715 714 713 712 710 709 708 707 705 703 701 700 698 696 694 693 691 690 688 687 686 685 684 683 682 681
787 785 783 781 779 778 776 775 773 771 770 768 766 765 763 761 759 758 757 755 753 750 748 747 745 743 741 740 738 736 735 733 732 729 728 726 725 723 720 718 715 714 713 713 712 710 709 708 707 706 704 703 701 699 697 696 694 692 691 689 688 686 685 684 683 682 680 679 678
785 783 782 780 778 776 774 773 771 769 768 766 764 763 761 759 758 756 754 753 751 748 746 744 743 741 739 738 736 734 732 731 730 728 726 724 722 721 719 716 713 712 711 710 709 708 707 705 704 703 702 701 699 697 695 693 691 690 688 687 685 684 683 682 680 679 678 676 676
783 782 780 778 776 774 773 771 769 768 766 764 762 761 759 758 756 753 752 751 749 747 744 742 740 738 737 735 733 731 729 728 727 726 724 722 720 718 717 714 711 709 708 708 707 706 704 703 702 701 700 698 697 695 693 691 689 687 686 684 683 681 680 679 678 677 675 674 673
781 779 778 776 774 773 771 769 767 766 764 762 760 758 757 755 753 752 750 748 747 745 743 740 738 736 735 733 731 729 727 725 724 723 722 720 718 716 715 713 710 708 706 706 705 703 702 701 699 698 698 696 694 693 691 688 687 685 683 682 680 679 677 676 675 674 673 671 670
779 778 776 774 773 771 769 767 765 763 762 760 758 757 755 753 751 749 748 746 744 743 741 738 736 734 733 731 729 727 725 723 721 720 719 718 716 714 712 711 708 706 704 703 703 701 700 699 698 696 695 694 692 690 688 687 684 682 681 679 678 677 675 673 672 671 670 669 668